Weather at Aeropuerto "General Tomas de Heres". Ciudad Bolivar

Public forecast

Using degrees Celsius for public forecast. Weather courtesy of forecast.io.

Current aviation weather report (METAR) for Aeropuerto "General Tomas de Heres". Ciudad Bolivar

Report is more than 6 hours old.

Retrieved 2018/10/11 09:00 UTC (2 years ago):

SVCB 110900Z /////KT 9999 FEW016 22/22 Q1012

Closest aviation forecast (TAF) to Aeropuerto "General Tomas de Heres". Ciudad Bolivar

Closest forecast is General José Antonio Anzoategui International Airport, 137.7 nm (254.9 km) NNW. Retrieved 2020/10/23 06:03 UTC (5 hours ago):

TAF SVBC 230400Z 2306/2406 00000KT 9999 FEW010 TX35/2318Z TN23/1908Z TEMPO 2306/2310 00000KT 9999 FEW010